* Astronomy

Members Login
Username 
 
Password 
    Remember Me  
Post Info TOPIC: Asteroid 2011 WS41


L

Posts: 131433
Date:
Asteroid 2011 WS41
Permalink  
 


Orbital elements:
2011 WS41
Epoch 2011 Nov. 15.0 TT = JDT 2455880.5                 MPC
M   6.84195              (2000.0)            P               Q
n   0.04464650     Peri.  313.33461     -0.71195582     +0.33373378
a   7.8694516      Node   104.23155     +0.66831554     +0.59212609
e   0.7605345      Incl.  140.40076     -0.21557653     +0.73349060
P  22.1            H   17.8           G   0.15
From 12 observations 2011 Nov. 24-25.

MPEC 2011 - W58



__________________
Page 1 of 1  sorted by
 
Quick Reply

Please log in to post quick replies.



Create your own FREE Forum
Report Abuse
Powered by ActiveBoard